This demonstration page uses our WeatherBlox Daily Observations layout. Learn more.

Left ArrowRight Arrow

30.21309, -93.2044

Hourly Observations for June 1, 2019

Temp ( °F °C ) Dew Point ( °F °C ) Humidity (%) Winds ( mph kmh ) Pressure ( in mb ) Visibility ( mi km ) Precip ( " mm )
12:15 am 00:15 Clear 70 21.1 69 20.8 98 98 ESE 3 6 29.97 1015 10 16 0.00 0.00
12:35 am 00:35 Clear 70 21.2 70 20.9 98 98 NNE 3 6 29.97 1015 10 16 0.00 0.00
12:55 am 00:55 Clear 70 21.2 70 20.9 98 98 Calm 29.97 1015 10 16 0.00 0.00
1:15 am 01:15 Clear 70 21.3 70 21 98 98 NNE 7 11 29.97 1015 10 16 0.00 0.00
1:35 am 01:35 Clear 70 21 69 20.7 98 98 Calm 29.96 1015 10 16 0.00 0.00
1:55 am 01:55 Clear 71 21.5 70 21.2 98 98 Calm 29.96 1015 10 16 0.00 0.00
2:15 am 02:15 Clear 71 21.5 70 21 97 97 Calm 29.95 1014 10 16 0.00 0.00
2:35 am 02:35 Clear 70 21.1 69 20.7 98 98 Calm 29.94 1014 10 16 0.00 0.00
2:55 am 02:55 Clear 70 21.2 69 20.8 98 98 Calm 29.94 1014 10 16 0.00 0.00
3:15 am 03:15 Clear 70 21.3 70 20.9 98 98 Calm 29.93 1014 10 16 0.00 0.00
3:35 am 03:35 Clear 70 21.2 69 20.8 98 98 Calm 29.93 1014 10 16 0.00 0.00
3:55 am 03:55 Clear 70 21.2 69 20.7 97 97 Calm 29.93 1014 10 16 0.00 0.00
4:15 am 04:15 Clear 70 21 69 20.6 98 98 NNE 3 6 29.93 1014 10 16 0.00 0.00
4:35 am 04:35 Clear 70 21 69 20.7 98 98 NNE 5 7 29.93 1014 10 16 0.00 0.00
4:55 am 04:55 Clear 70 21 69 20.7 98 98 Calm 29.94 1014 10 16 0.00 0.00
5:15 am 05:15 Clear 70 21 70 20.9 99 99 Calm 29.94 1014 10 16 0.00 0.00
5:35 am 05:35 Clear 70 21 69 20.7 98 98 Calm 29.94 1014 10 16 0.00 0.00
6:00 am 06:00 Mostly Clear 70 21 68 20 94 94 Calm 29.94 1014 10 16 0.00 0.00
6:45 am 06:45 Mostly Sunny 70 21 68 20 94 94 VRB 3 6 29.94 1014 10 16 0.00 0.00
7:45 am 07:45 Mostly Sunny 73 23 70 21 89 89 Calm 29.96 1015 10 16 0.00 0.00
8:45 am 08:45 Mostly Sunny 77 25 70 21 79 79 Calm 29.97 1015 10 16 0.00 0.00
9:45 am 09:45 Mostly Sunny 79 26 72 22 79 79 VRB 3 6 29.98 1015 10 16 0.00 0.00
10:45 am 10:45 Mostly Sunny 82 28 72 22 70 70 VRB 3 6 29.97 1015 10 16 0.00 0.00
11:45 am 11:45 Mostly Sunny 84 29 70 21 62 62 VRB 6 9 29.98 1015 10 16 0.00 0.00
12:45 pm 12:45 Mostly Sunny 86 30 72 22 62 62 Calm 29.98 1015 10 16 0.00 0.00
1:45 pm 13:45 Mostly Sunny 88 31 72 22 59 59 VRB 3 6 29.95 1014 10 16 0.00 0.00
2:50 pm 14:50 Partly Cloudy 90 32 72 22 55 55 VRB 6 9 29.94 1014 10 16 0.00 0.00
3:55 pm 15:55 Partly Cloudy 90 32 72 22 55 55 Calm 29.92 1013 10 16 0.00 0.00
4:55 pm 16:55 Partly Cloudy 90 32 72 22 55 55 VRB 5 7 29.90 1012 10 16 0.00 0.00
5:50 pm 17:50 Partly Cloudy 90 32 70 21 52 52 Calm 29.89 1012 10 16 0.00 0.00
6:50 pm 18:50 Partly Cloudy 88 31 70 21 55 55 Calm 29.88 1012 10 16 0.00 0.00
7:50 pm 19:50 Mostly Sunny 86 30 72 22 62 62 Calm 29.87 1011 10 16 0.00 0.00
8:55 pm 20:55 Mostly Clear 82 28 72 22 70 70 VRB 7 11 29.88 1012 10 16 0.00 0.00
9:50 pm 21:50 Mostly Clear 81 27 73 23 79 79 SW 3 6 29.89 1012 10 16 0.00 0.00
10:15 pm 22:15 Clear 82 27.6 75 24.1 81 81 SW 6 9 29.90 1013 10 16 0.00 0.00
10:35 pm 22:35 Clear 82 27.5 75 24.1 82 82 SW 6 9 29.90 1013 10 16 0.00 0.00
10:55 pm 22:55 Clear 81 27.4 75 24 82 82 SW 7 11 29.91 1013 10 16 0.00 0.00
11:15 pm 23:15 Clear 81 27.3 75 24 82 82 SW 6 9 29.91 1013 10 16 0.00 0.00
11:35 pm 23:35 Clear 81 27.1 75 24 83 83 WSW 5 7 29.92 1013 10 16 0.00 0.00
11:55 pm 23:55 Clear 81 27 75 24 84 84 WSW 3 6 29.91 1013 10 16 0.00 0.00

Powered by AerisWeather